Location: Waco, TX
(31.5480°N, 97.1670°W)
Time: 14:52:54
(UTC-06:00)

ISS - Pass Details

Date: 05 January 2018
Orbit: 401 x 407 km, 51.6° (Epoch: 17 January)

Event Time Altitude Azimuth Distance (km) Brightness Sun altitude
Rises 01:52:53 0° 196° (SSW) 2,296 - -70.3°
Reaches altitude 10° 01:55:16 10° 179° (S) 1,443 - -69.9°
Maximum altitude 01:57:46 21° 128° (SE) 965 - -69.4°
Drops below altitude 10° 02:00:18 10° 77° (ENE) 1,452 - -68.9°
Sets 02:02:42 0° 60° (ENE) 2,316 - -68.4°
